355P/LINEAR-NEAT (2017)

Japanese version
Home page
Updated on April 13, 2018

---------------------------------------------------------------------

* Profile

Designation 355P/2017 M2
Recovery Date June 21, 2017
Magnitude 19.6 mag
Recoverer Erwin Schwab (Egelsbach, Germany), Pablo Ruiz (European Space Agency's Optical Ground Station, Tenerife)

* Pictures

* Orbital Elements

Epoch 2017 Oct. 14.0 TT = JDT 2458040.5
T 2017 Oct. 12.68009 TT                                 MPCW
q   1.7159749            (2000.0)            P               Q
n   0.15204336     Peri.  336.33728     +0.87879148     -0.45312364
a   3.4766242      Node    51.46122     +0.46267092     +0.73220256
e   0.5064250      Incl.   11.03232     +0.11688093     +0.50848636
P   6.48
From 747 observations 2004 July 16-2018 Mar. 9, mean residual 0".6.

* Finding Charts

* Magnitudes Graph

        m1 = 10.0 + 5 log d + 25.0 log r(t - 25)

---------------------------------------------------------------------

The orbital elements are published on M.P.E.C. 2018-F152.
The charts are made with StellaNavigator Ver.10 (AstroArts).
The magnitudes graphs are made with Comet for Windows.

---------------------------------------------------------------------

Copyright(C) Seiichi Yoshida (comet@aerith.net). All rights reserved.